This is the latest recevied weather packets stored in our database for station/object KN6KS. If no packets are shown the sender has not sent any weather packets the latest 10 day(s).
| Time | Temp. | Humidity | Pressure | Rain* | Wind** | Luminosity | Snow |
|---|---|---|---|---|---|---|---|
| 1777560339 | 16.67° C | 50% | 1012.8 hPa | 0 mm | - | 154 W/m² | - |
| 1777559732 | 16.11° C | 53% | 1012.7 hPa | 0 mm | - | 68 W/m² | - |
| 1777557915 | 13.89° C | 55% | 1012.6 hPa | 0 mm | - | 50 W/m² | - |
| 1777557308 | 13.33° C | 56% | 1012.8 hPa | 0 mm | - | 42 W/m² | - |
| 1777556092 | 12.78° C | 58% | 1012.4 hPa | 0 mm | - | 25 W/m² | - |
| 1777555184 | 12.22° C | 58% | 1012.1 hPa | 0 mm | - | 12 W/m² | - |
| 1777554882 | 11.67° C | 61% | 1012.1 hPa | 0 mm | - | 8 W/m² | - |
| 1777554578 | 11.67° C | 60% | 1012 hPa | 0 mm | - | 4 W/m² | - |
| 1777554275 | 12.22° C | 58% | 1012.1 hPa | 0 mm | - | 1 W/m² | - |
| 1777553062 | 12.78° C | 55% | 1012.2 hPa | 0 mm | - | 0 W/m² | - |
| 1777552453 | 12.78° C | 56% | 1012.1 hPa | 0 mm | - | 0 W/m² | - |
| 1777552149 | 12.78° C | 56% | 1012.5 hPa | 0 mm | - | 0 W/m² | - |
| 1777551846 | 12.78° C | 57% | 1012.4 hPa | 0 mm | - | 0 W/m² | - |
| 1777550330 | 11.67° C | 60% | 1012.6 hPa | 0 mm | - | 0 W/m² | - |
| 1777549724 | 11.67° C | 62% | 1012.4 hPa | 0 mm | - | 0 W/m² | - |
| 1777548812 | 12.22° C | 61% | 1012.4 hPa | 0 mm | - | 0 W/m² | - |
| 1777548206 | 12.78° C | 58% | 1012.4 hPa | 0 mm | - | 0 W/m² | - |
| 1777547902 | 12.78° C | 60% | 1012.5 hPa | 0 mm | - | 0 W/m² | - |
| 1777545476 | 13.33° C | 58% | 1012.7 hPa | 0 mm | - | 0 W/m² | - |
| 1777545173 | 13.33° C | 58% | 1012.7 hPa | 0 mm | - | 0 W/m² | - |
| 1777544871 | 13.33° C | 57% | 1012.8 hPa | 0 mm | - | 0 W/m² | - |
| 1777544566 | 13.89° C | 55% | 1012.7 hPa | 0 mm | - | 0 W/m² | - |
| 1777544263 | 13.89° C | 55% | 1012.8 hPa | 0 mm | - | 0 W/m² | - |
| 1777543961 | 13.33° C | 57% | 1012.7 hPa | 0 mm | - | 0 W/m² | - |
| 1777543657 | 13.89° C | 56% | 1012.9 hPa | 0 mm | - | 0 W/m² | - |
* Rain latest hour (hover to see other rain measurements)
** Current wind speed in m/s (hover to see current wind gust speed)